Date,TemperatureHighF,TemperatureAvgF,TemperatureLowF,DewpointHighF,DewpointAvgF,DewpointLowF,HumidityHigh,HumidityAvg,HumidityLow,PressureMaxIn,PressureMinIn,WindSpeedMaxMPH,WindSpeedAvgMPH,GustSpeedMaxMPH,PrecipitationSumIn
2013-2-1,22.7,12.2,2.4,19.0,3.6,-4.0,89,69,53,30.50,30.22,13,5,20,0.00
2013-2-2,30.9,24.8,20.3,24.0,18.3,15.0,91,76,66,30.21,30.07,10,4,19,0.00
2013-2-3,31.1,26.1,20.8,24.0,18.4,14.0,94,74,51,30.17,30.00,13,4,22,0.00
2013-2-4,40.7,30.7,24.9,28.0,23.2,19.0,84,74,60,30.00,29.80,10,4,20,0.00
2013-2-5,45.2,34.5,23.5,33.0,28.1,20.0,89,78,61,30.11,29.87,13,4,18,0.00
2013-2-6,48.2,36.0,25.1,35.0,27.6,-99.9,96,77,55,30.23,30.03,19,-18,19,0.00
2013-2-7,39.2,37.1,34.1,39.0,35.4,33.0,97,93,81,30.06,29.86,9,3,16,0.51
2013-2-8,33.8,30.7,27.1,33.0,27.2,24.0,96,86,79,30.39,30.07,10,3,15,0.00
2013-2-9,36.7,32.0,27.0,33.0,28.1,24.0,89,85,77,30.38,30.02,13,5,15,0.01
2013-2-10,51.9,44.0,35.9,49.0,40.0,31.0,96,87,56,30.03,29.48,23,8,35,0.61
2013-2-11,42.8,36.7,28.4,32.0,26.3,23.0,87,67,56,30.14,29.66,21,8,36,0.00
2013-2-12,40.7,31.6,24.4,29.0,25.8,23.0,94,80,56,30.17,29.95,6,1,9,0.00
2013-2-13,47.7,38.0,28.9,33.0,29.3,25.0,86,72,51,29.95,29.78,16,3,16,0.00
2013-2-14,44.7,39.4,34.3,33.0,31.2,28.0,82,73,62,30.05,29.75,15,4,21,0.00
2013-2-15,35.7,29.0,22.3,29.0,16.3,12.0,82,61,39,30.28,30.06,13,4,15,0.00
2013-2-16,31.8,23.0,14.0,16.0,12.5,8.0,79,65,47,30.28,30.18,10,3,16,0.00
2013-2-17,41.4,29.1,16.0,27.0,19.3,13.0,87,68,47,30.21,29.89,12,5,18,0.00
2013-2-18,55.3,41.2,27.3,48.0,35.0,21.0,94,79,66,29.89,29.46,20,8,29,0.47
2013-2-19,27.3,21.9,17.8,21.0,12.8,8.0,78,68,58,30.31,29.83,22,8,26,0.00
2013-2-20,22.5,16.2,6.5,14.0,7.8,1.0,81,70,56,30.47,30.30,8,3,18,0.00
2013-2-21,29.3,22.8,16.3,28.0,20.0,13.0,96,89,79,30.38,29.86,24,10,31,0.00
2013-2-22,31.6,28.8,25.3,31.0,25.2,-99.9,97,89,81,30.03,29.79,12,-7,19,0.00
2013-2-23,31.2,24.7,17.8,20.0,18.1,15.0,89,76,63,30.04,29.99,6,2,11,0.00
2013-2-24,40.3,28.9,15.5,25.0,19.2,-99.9,91,71,52,30.14,30.03,7,-9,10,0.03
2013-2-25,41.2,35.1,26.4,34.0,28.9,23.0,90,78,65,30.12,29.80,22,8,30,0.00
2013-2-26,36.9,32.3,30.9,33.0,28.3,-99.9,98,91,74,29.80,29.45,28,-11,35,0.21
2013-2-27,33.3,31.6,30.4,32.0,30.3,29.0,96,95,92,29.85,29.62,10,4,16,0.06
2013-2-28,34.7,32.4,30.5,31.0,30.1,29.0,96,91,83,30.10,29.85,9,3,11,0.01